Location: Old Broadwell Mill Observatory
(33.8015°N, 85.8137°W)
Time: 22:50:18
(UTC-05:00)

Gurwin Techsat 1B - Visible Passes

Search period start: 03 September 2015 00:00
Search period end: 13 September 2015 00:00
Orbit: 811 x 815 km, 98.5° (Epoch: 02 September)

Date Brightness Start Highest point End Pass type
(mag) Time Alt. Az. Time Alt. Az. Time Alt. Az.
03 Sep 10.0 03:19:06 10° N 03:21:50 31° N 03:21:50 31° N visible
04 Sep 10.4 02:56:22 10° NNE 02:58:43 27° NNE 02:58:43 27° NNE visible
04 Sep 10.6 04:38:36 10° NW 04:39:56 13° NW 04:39:56 13° NW visible
05 Sep 10.9 02:33:55 10° NNE 02:35:36 19° NE 02:35:36 19° NE visible
05 Sep 10.3 04:14:34 10° NNW 04:16:48 19° NW 04:16:48 19° NW visible
06 Sep 11.4 02:11:50 10° NE 02:12:29 13° NE 02:12:29 13° NE visible
06 Sep 10.2 03:51:12 10° N 03:53:41 24° NNW 03:53:41 24° NNW visible
07 Sep 10.2 03:28:08 10° N 03:30:34 27° N 03:30:34 27° N visible
08 Sep 10.5 03:05:20 10° NNE 03:07:27 25° NNE 03:07:27 25° NNE visible
09 Sep 10.9 02:42:46 10° NNE 02:44:20 19° NNE 02:44:20 19° NNE visible
09 Sep 10.6 04:23:57 10° NNW 04:25:32 15° NW 04:25:32 15° NW visible
10 Sep 11.4 02:20:30 10° NE 02:21:12 13° NE 02:21:12 13° NE visible
10 Sep 10.4 04:00:24 10° N 04:02:24 20° NNW 04:02:24 20° NNW visible
11 Sep 10.4 03:37:14 10° N 03:39:17 23° N 03:39:17 23° N visible
12 Sep 10.6 03:14:20 10° N 03:16:10 22° N 03:16:10 22° N visible
